Location: Smithsonian NASM Public Observatory
(38.8879°N, 77.0185°W)
Time: 18:00:48
(UTC-04:00)

Daily predictions for brighter satellites

Satellite Brightness Start Highest point End
(mag) Time Altitude Azimuth Time Altitude Azimuth Time Altitude Azimuth
Cosmos 1076 Rocket 3.8 19:10:16 10° N 19:14:26 44° E 19:18:36 10° SSE
ASTRO E2 4.4 19:14:02 10° WSW 19:17:22 25° S 19:20:41 10° SE
ATLAS 5 CENTAUR R/B 1.9 19:12:48 10° SW 19:17:32 85° WNW 19:22:42 10° NNE
MSX 4.0 19:12:10 10° SSE 19:17:54 86° WSW 19:23:42 10° NNW
Cosmos 1766 Rocket 3.9 19:15:29 10° N 19:19:38 41° ENE 19:23:43 10° SSE
Abrixas 2.4 19:17:34 10° SW 19:20:34 86° SSE 19:23:34 10° ENE
Cosmos-2242 3.6 19:18:58 10° SSE 19:22:58 36° E 19:27:00 10° NNE
Cosmos 2056 Rocket 4.4 19:20:00 10° NNW 19:25:19 56° WSW 19:30:34 10° S
CZ-2C R/B 4.1 19:22:50 10° SSW 19:27:24 38° W 19:31:51 10° NNW
SJ-6B 3.1 19:23:48 10° SSE 19:27:39 49° ENE 19:31:37 10° N
ATLAS CENTAUR R/B 3.5 19:26:05 10° SW 19:30:36 86° NW 19:45:09 10° NE
USA 215 3.8 19:25:23 10° ENE 19:31:22 38° SE 19:37:19 10° SSW
FREGAT/IRIS 3.2 19:29:41 10° SE 19:32:35 37° ENE 19:35:28 10° N
Cosmos 1544 3.8 19:30:03 10° SSE 19:33:26 33° E 19:36:50 10° NNE
Cosmos 1346 4.0 19:31:46 10° NNE 19:34:21 26° ENE 19:36:55 10° SE
Cosmos 1484 Rocket 3.2 19:30:41 10° S 19:34:29 66° WSW 19:38:24 10° NNW
SAR-Lupe-4 3.5 19:33:25 10° SSE 19:36:58 78° ENE 19:40:33 10° N
Cosmos 724 4.3 19:31:11 10° SSW 19:37:05 87° ESE 19:43:13 10° NNE
METEOR-M 4.4 19:32:19 10° SE 19:37:26 47° ENE 19:42:33 10° N
OAO 3 Rocket 3.7 19:38:23 10° W 19:42:57 50° S 19:46:49 14° ESE
Cosmos 1758 3.3 19:39:23 10° S 19:43:27 75° E 19:47:33 10° N
Cosmos 1464 Rocket 4.1 19:38:03 10° S 19:44:17 83° W 19:50:29 10° N
Cosmos 2034 Rocket 4.0 19:38:14 10° S 19:44:28 74° E 19:50:48 10° N
SL-16 R/B 3.8 19:43:05 10° SW 19:48:18 37° WNW 19:53:34 10° N
CZ-4B DEB 4.3 19:49:16 18° ENE 19:49:26 19° ENE 19:51:47 10° NNE
Cosmos 1408 Rocket 3.6 19:46:10 10° N 19:50:31 80° W 19:54:48 10° S
Cosmos 1842 Rocket 4.1 19:47:36 10° SSE 19:51:32 35° E 19:55:30 10° NNE
Cosmos 1500 Rocket 4.3 19:47:40 10° NNE 19:51:42 33° ENE 19:55:40 10° SE
FENGYUN 3A 4.2 19:51:10 10° SE 19:56:00 35° ENE 20:00:51 10° N
Meteor 1-21 Rocket 4.1 19:50:37 10° N 19:56:11 74° E 20:01:41 10° SSE
Spot 1 4.1 19:54:45 10° SSE 19:59:25 76° ENE 20:03:52 10° N
Helios 1A 3.1 19:55:46 10° SSE 19:59:52 55° ENE 20:04:00 10° N
CZ-2D R/B 4.1 20:06:27 28° E 20:06:57 29° ENE 20:10:21 10° N
Meteor 1-28 Rocket 4.2 20:04:46 10° N 20:08:22 47° WNW 20:11:56 10° SSW
Meteor 1-29 2.8 20:06:36 10° NNE 20:10:05 68° E 20:13:33 10° S
GPS 2-04 Rocket1 2.8 20:11:00 10° WSW 20:14:21 46° S 20:15:05 39° SE
H-2A R/B 3.2 20:17:06 38° E 20:17:19 38° ENE 20:20:55 10° N
ASTEX 1 3.4 20:13:35 10° NNE 20:18:25 57° E 20:23:13 10° S
Cosmos 839 Rocket 4.5 20:12:50 10° NNW 20:20:14 51° NE 20:23:23 29° ESE
Resurs 1-3 3.5 20:16:07 10° SSE 20:20:30 84° ENE 20:24:55 10° N
Cosmos 1943 Rocket 3.3 20:16:15 10° N 20:20:45 24° NE 20:21:11 24° ENE
Cosmos 1743 Rocket 3.6 20:16:53 10° N 20:21:20 78° W 20:25:42 10° S
ALOS 2.2 20:20:15 20° SSE 20:23:25 64° ENE 20:28:03 10° N
Cosmos 2251 Rocket 3.8 20:21:04 10° S 20:25:53 39° ESE 20:30:44 10° NE
Cosmos 2369 Rocket 2.2 20:22:57 10° NNW 20:28:35 62° ENE 20:31:02 33° SE
Cosmos 1943 3.0 20:22:57 10° SSW 20:28:35 79° ESE 20:34:13 10° NNE
Resurs 01 Rocket 2.1 20:24:15 10° S 20:28:38 60° W 20:33:03 10° NNW
Helios 1B rocket 3.1 20:26:08 10° N 20:30:11 56° WNW 20:34:12 10° SSW
CENTAUR R/B 2.4 20:25:06 10° SSW 20:31:06 89° ESE 20:37:52 10° NNE
SL-8 R/B 4.5 20:27:05 10° W 20:31:43 48° NNW 20:34:17 24° NE
Gbstr 26 Del rocket 3.3 20:29:08 10° WSW 20:33:31 75° NW 20:36:27 26° NE
ISS -1.7 20:34:06 10° W 20:37:01 30° NNW 20:37:49 26° N
BREEZE-M DEB (TANK) 3.9 20:27:33 10° WNW 20:39:48 50° N 20:41:39 34° NE
Cosmos 1733 3.4 20:36:00 10° SSW 20:39:52 72° W 20:43:43 10° N
Cosmos 2263 4.3 20:34:42 10° NNW 20:40:23 55° ENE 20:41:31 47° ESE
Cosmos 1331 Rocket 4.4 20:35:22 10° N 20:40:19 41° ENE 20:40:19 41° ENE
Cosmos 1470 3.8 20:43:19 10° SSW 20:47:03 46° W 20:50:48 10° N
Cosmos 2279 Rocket 4.0 20:48:02 48° ESE 20:48:46 51° E 20:54:44 10° NNE
Cosmos 1674 3.8 20:45:20 10° NNW 20:49:03 44° W 20:51:28 19° SSW
GP-B 2.9 20:48:29 10° N 20:52:56 87° ENE 20:52:56 87° ENE
Cosmos 2058 4.4 20:49:52 10° N 20:51:47 26° NNE 20:51:47 26° NNE
Cosmos 1092 Rocket 4.4 20:52:48 10° NNW 20:58:54 61° W 21:04:55 10° S
Cosmos 2151 3.4 20:58:03 10° N 21:01:36 59° NW 21:01:36 59° NW
Envisat 4.3 21:05:36 27° NNE 21:05:36 27° NNE 21:08:13 10° N
SL-24 R/B - RUBIN 2 4.3 20:59:16 10° NNW 21:05:55 69° NE 21:06:20 67° E
Meteor 2-1 Rocket 4.1 21:08:30 77° ENE 21:08:30 77° ENE 21:14:15 10° NNE
Cosmos 1655 Rocket 3.8 21:03:06 10° N 21:09:21 81° E 21:10:10 68° SSE
Cosmos 2026 Rocket 3.8 21:03:49 10° N 21:09:57 90° NW 21:11:21 57° S
Meteor 1-16 Rocket 4.2 21:05:36 10° SSW 21:10:53 73° W 21:16:13 10° N
USA 215 3.7 21:09:20 16° NE 21:14:31 60° NW 21:20:54 10° WSW
Meteor 1-11 4.4 21:19:09 10° NNW 21:24:53 68° W 21:25:15 67° WSW
ERS-1 Rocket 4.3 21:35:50 32° NNW 21:35:50 32° NNW 21:38:32 10° NNW
Cosmos 1943 Rocket 3.6 21:59:22 10° NW 22:02:44 33° WNW 22:02:44 33° WNW
Cosmos 2369 Rocket 4.5 22:08:30 10° WNW 22:12:01 17° W 22:12:52 16° WSW
